Hourly Weather Barr

Today, 29 September, Tuesday

Time Temperature Precipitation Wind Pressure Humidity
00:00 +12°C° 0.3 mm 2 mps 734 mmHg 94%
01:00 +12°C° 0.7 mm 2 mps 734 mmHg 95%
02:00 +10°C° 0.7 mm 3 mps 734 mmHg 95%
03:00 +10°C° 0.7 mm 3 mps 734 mmHg 96%
04:00 +10°C° 0.8 mm 3 mps 734 mmHg 95%
05:00 +10°C° 0.8 mm 3 mps 735 mmHg 95%
06:00 +10°C° 0.8 mm 3 mps 735 mmHg 94%
07:00 +10°C° 0.4 mm 3 mps 736 mmHg 94%
08:00 +10°C° 0.4 mm 2 mps 736 mmHg 93%
09:00 +10°C° 0.4 mm 2 mps 736 mmHg 93%
10:00 +10°C° 0.1 mm 2 mps 736 mmHg 92%
11:00 +10°C° 0.1 mm 2 mps 737 mmHg 91%
12:00 +12°C° 0.1 mm 2 mps 737 mmHg 91%
13:00 +12°C° 0 mm 2 mps 737 mmHg 89%
14:00 +13°C° 0 mm 2 mps 737 mmHg 87%
15:00 +13°C° 0 mm 1 mps 736 mmHg 85%
16:00 +13°C° 0 mm 1 mps 737 mmHg 87%
17:00 +12°C° 0 mm 1 mps 737 mmHg 89%
18:00 +12°C° 0 mm 1 mps 737 mmHg 90%
19:00 +11°C° 0 mm 1 mps 737 mmHg 90%
20:00 +11°C° 0 mm 1 mps 737 mmHg 90%
21:00 +11°C° 0 mm 1 mps 736 mmHg 91%
22:00 +11°C° 0 mm 1 mps 736 mmHg 90%
23:00 +11°C° 0 mm 1 mps 736 mmHg 90%

Tomorrow, 30 September, Wednesday

Time Temperature Precipitation Wind Pressure Humidity
00:00 +11°C° 0 mm 1 mps 736 mmHg 90%
01:00 +11°C° 0 mm 1 mps 736 mmHg 91%
02:00 +11°C° 0 mm 1 mps 735 mmHg 92%
03:00 +11°C° 0 mm 1 mps 735 mmHg 92%
04:00 +10°C° 0 mm 1 mps 735 mmHg 92%
05:00 +10°C° 0 mm 1 mps 735 mmHg 93%
06:00 +10°C° 0 mm 1 mps 735 mmHg 93%
07:00 +12°C° 0 mm 1 mps 735 mmHg 87%
08:00 +14°C° 0 mm 1 mps 735 mmHg 80%
09:00 +16°C° 0 mm 1 mps 735 mmHg 74%
10:00 +18°C° 0 mm 1 mps 734 mmHg 69%
11:00 +19°C° 0 mm 1 mps 734 mmHg 64%
12:00 +20°C° 0 mm 1 mps 733 mmHg 59%
13:00 +20°C° 0 mm 1 mps 733 mmHg 59%
14:00 +20°C° 0 mm 1 mps 732 mmHg 59%
15:00 +20°C° 0 mm 1 mps 732 mmHg 59%
16:00 +18°C° 0 mm 1 mps 732 mmHg 67%
17:00 +15°C° 0 mm 1 mps 731 mmHg 75%
18:00 +13°C° 0 mm 1 mps 731 mmHg 83%
19:00 +13°C° 0 mm 1 mps 731 mmHg 84%
20:00 +13°C° 0 mm 1 mps 731 mmHg 85%
21:00 +12°C° 0 mm 1 mps 731 mmHg 86%
22:00 +12°C° 0 mm 1 mps 730 mmHg 86%
23:00 +12°C° 0 mm 1 mps 730 mmHg 87%

Day after tomorrow, 1 October, Thursday

Time Temperature Precipitation Wind Pressure Humidity
00:00 +12°C° 0 mm 1 mps 730 mmHg 88%
01:00 +12°C° 0 mm 1 mps 729 mmHg 88%
02:00 +12°C° 0 mm 1 mps 729 mmHg 89%
03:00 +11°C° 0 mm 1 mps 728 mmHg 89%
04:00 +11°C° 0 mm 1 mps 728 mmHg 89%
05:00 +11°C° 0 mm 1 mps 728 mmHg 89%
06:00 +11°C° 0 mm 1 mps 727 mmHg 88%
07:00 +13°C° 0 mm 1 mps 727 mmHg 81%
08:00 +15°C° 0 mm 1 mps 727 mmHg 74%
09:00 +18°C° 0 mm 1 mps 727 mmHg 67%
10:00 +18°C° 0 mm 2 mps 727 mmHg 64%
11:00 +18°C° 0 mm 3 mps 726 mmHg 61%
12:00 +19°C° 0 mm 4 mps 726 mmHg 58%
13:00 +18°C° 0 mm 4 mps 726 mmHg 61%
14:00 +17°C° 0 mm 4 mps 726 mmHg 65%
15:00 +16°C° 0 mm 3 mps 726 mmHg 68%
16:00 +14°C° 0 mm 3 mps 726 mmHg 72%
17:00 +14°C° 0 mm 3 mps 726 mmHg 77%
18:00 +14°C° 0 mm 2 mps 726 mmHg 81%
19:00 +13°C° 0 mm 2 mps 726 mmHg 83%
20:00 +13°C° 0 mm 2 mps 726 mmHg 86%
21:00 +12°C° 0 mm 1 mps 726 mmHg 88%
22:00 +12°C° 0.1 mm 1 mps 726 mmHg 90%
23:00 +12°C° 0.1 mm 1 mps 725 mmHg 92%

2 October, Friday

Time Temperature Precipitation Wind Pressure Humidity
00:00 +11°C° 0.1 mm 1 mps 725 mmHg 94%
01:00 +11°C° 0 mm 1 mps 724 mmHg 94%
02:00 +11°C° 0 mm 1 mps 724 mmHg 94%
03:00 +11°C° 0 mm 1 mps 723 mmHg 94%
04:00 +11°C° 0.2 mm 1 mps 723 mmHg 94%
05:00 +11°C° 0.2 mm 1 mps 722 mmHg 93%
06:00 +12°C° 0.2 mm 1 mps 722 mmHg 93%
07:00 +12°C° 0.1 mm 1 mps 721 mmHg 91%
08:00 +13°C° 0.1 mm 2 mps 721 mmHg 88%
09:00 +14°C° 0.1 mm 2 mps 720 mmHg 85%
10:00 +15°C° 0 mm 2 mps 720 mmHg 83%
11:00 +15°C° 0 mm 2 mps 720 mmHg 80%
12:00 +16°C° 0 mm 2 mps 719 mmHg 77%
13:00 +17°C° 0 mm 2 mps 719 mmHg 74%
14:00 +18°C° 0 mm 3 mps 718 mmHg 72%
15:00 +18°C° 0 mm 3 mps 718 mmHg 69%
16:00 +17°C° 0 mm 3 mps 717 mmHg 72%
17:00 +16°C° 0 mm 3 mps 717 mmHg 75%
18:00 +16°C° 0 mm 3 mps 717 mmHg 78%
19:00 +14°C° 0 mm 3 mps 716 mmHg 81%
20:00 +15°C° 0 mm 2 mps 716 mmHg 83%
21:00 +14°C° 0 mm 2 mps 716 mmHg 86%
22:00 +14°C° 0 mm 2 mps 716 mmHg 87%
23:00 +13°C° 0 mm 2 mps 715 mmHg 89%

3 October, Saturday

Time Temperature Precipitation Wind Pressure Humidity
00:00 +13°C° 0 mm 1 mps 715 mmHg 91%
01:00 +13°C° 0 mm 1 mps 716 mmHg 91%
02:00 +12°C° 0 mm 2 mps 716 mmHg 90%
03:00 +12°C° 0 mm 2 mps 716 mmHg 90%
04:00 +12°C° 0 mm 2 mps 717 mmHg 89%
05:00 +12°C° 0 mm 2 mps 718 mmHg 87%
06:00 +12°C° 0 mm 2 mps 718 mmHg 86%
07:00 +12°C° 0.4 mm 2 mps 719 mmHg 86%
08:00 +10°C° 0.4 mm 2 mps 720 mmHg 86%
09:00 +9°C° 0.4 mm 3 mps 721 mmHg 87%
10:00 +9°C° 0.2 mm 2 mps 722 mmHg 86%
11:00 +9°C° 0.2 mm 2 mps 722 mmHg 86%
12:00 +9°C° 0.2 mm 2 mps 723 mmHg 85%
13:00 +10°C° 0 mm 2 mps 723 mmHg 81%
14:00 +12°C° 0 mm 2 mps 722 mmHg 77%
15:00 +13°C° 0 mm 2 mps 722 mmHg 73%
16:00 +12°C° 0 mm 2 mps 722 mmHg 78%
17:00 +11°C° 0 mm 1 mps 722 mmHg 82%
18:00 +9°C° 0 mm 1 mps 722 mmHg 87%
19:00 +9°C° 0 mm 1 mps 723 mmHg 87%
20:00 +9°C° 0 mm 1 mps 723 mmHg 88%
21:00 +9°C° 0 mm 1 mps 723 mmHg 88%
22:00 +9°C° 0 mm 1 mps 723 mmHg 88%
23:00 +8°C° 0 mm 1 mps 722 mmHg 88%

4 October, Sunday

Time Temperature Precipitation Wind Pressure Humidity
00:00 +8°C° 0 mm 1 mps 722 mmHg 87%
01:00 +8°C° 0 mm 1 mps 722 mmHg 87%
02:00 +8°C° 0 mm 1 mps 722 mmHg 86%
03:00 +8°C° 0 mm 1 mps 721 mmHg 85%
04:00 +8°C° 0 mm 1 mps 721 mmHg 85%
05:00 +8°C° 0 mm 1 mps 721 mmHg 86%
06:00 +8°C° 0 mm 1 mps 722 mmHg 86%
07:00 +9°C° 0 mm 2 mps 722 mmHg 80%
08:00 +11°C° 0 mm 3 mps 722 mmHg 73%
09:00 +13°C° 0 mm 3 mps 722 mmHg 67%
10:00 +14°C° 0 mm 4 mps 722 mmHg 65%
11:00 +14°C° 0 mm 5 mps 723 mmHg 62%
12:00 +15°C° 0 mm 5 mps 723 mmHg 60%
13:00 +14°C° 0.1 mm 5 mps 723 mmHg 66%
14:00 +13°C° 0.1 mm 5 mps 723 mmHg 72%
15:00 +12°C° 0.1 mm 4 mps 723 mmHg 78%
16:00 +11°C° 0 mm 4 mps 724 mmHg 81%
17:00 +10°C° 0 mm 3 mps 724 mmHg 84%
18:00 +9°C° 0 mm 3 mps 725 mmHg 88%
19:00 +8°C° 0 mm 2 mps 725 mmHg 89%
20:00 +8°C° 0 mm 2 mps 725 mmHg 89%
21:00 +7°C° 0 mm 2 mps 726 mmHg 90%
22:00 +8°C° 0 mm 2 mps 726 mmHg 89%
23:00 +8°C° 0 mm 2 mps 726 mmHg 88%
Show more